Regional Weather Roundup
Issued by NWS

Home | Current Version | Previous Version | Text Only | Print | Product List | Glossary Off
Versions: 1 2 3 4 5 6 7 8 9 10 11 12 13 14 15 16 17 18 19 20 21 22 23 24 25 26 27 28 29 30 31 32 33 34 35 36 37 38 39 40 41 42 43 44 45 46 47 48 49 50

000
ASUS43 KLOT 011458
RWRIL

ILLINOIS REGIONAL WEATHER ROUNDUP
NATIONAL WEATHER SERVICE CHICAGO/ROMEOVILLE IL
1000 AM CDT WED OCT 01 2014

NOTE: "FAIR" INDICATES FEW OR NO CLOUDS BELOW 12,000 FEET WITH NO
SIGNIFICANT WEATHER AND/OR OBSTRUCTIONS TO VISIBILITY.

* THESE STATIONS ARE NOT UNDER NWS QUALITY CONTROL. THEY ALSO MAY NOT
  REPORT WEATHER SUCH AS PRECIPITATION OR FOG.

ILZ001-002-007-009-015-016-024-011600-
NORTHWEST ILLINOIS

CITY           SKY/WX    TMP DP  RH WIND       PRES   REMARKS
MOLINE         NOT AVBL
$$

ILZ003-004-008-010-011-017-018-011600-
NORTH CENTRAL ILLINOIS

CITY           SKY/WX    TMP DP  RH WIND       PRES   REMARKS
ROCKFORD       NOT AVBL
$$

ILZ005-006-012>014-019>023-011600-
NORTHEAST ILLINOIS

CITY           SKY/WX    TMP DP  RH WIND       PRES   REMARKS
CHICAGO-OHARE  MOSUNNY   59  47  64 S10       30.02S
CHICAGO-MIDWAY NOT AVBL
AURORA         SUNNY     60  48  64 SE13      30.01F
WAUKEGAN       NOT AVBL
DUPAGE AIRPORT SUNNY     60  48  64 SE12      30.01S
WHEELING       SUNNY     61  47  59 SE9       30.04S
NORTHERLY ISL    N/A     59  49  69 SE10        N/A
$$

LMZ740>746-011600-
SOUTHERN LAKE MICHIGAN

STATION/POSITION SKY/WX   TEMP    WIND        PRES    VSBY  WAVE
                          AIR SEA DIR/SP/G                  HT/PER
                          (F)     (DEG/KT/KT) (MB)    (MI)  (FT/S)
SOUTHERN BUOY              56 61  150/ 10/ 14 1017.2R         2/ 3
WAUKEGAN HARBOR            58     170/ 14/ 16   N/A
HARRISON CRIB              56     140/ 17/ 21   N/A
BURNHAM HARBOR             58     130/ 10/ 15   N/A
CALUMET HARBOR             57     110/  5/ 10 1015.8R
MICHIGAN CITY              54     120/  8/ 11   N/A
MICHIGAN CITY 6N           56 64  140/ 10/ 14   N/A           1/ 2
ST. JOSEPH                 56 62  110/  6/ 10   N/A           1/ 2
$$

ILZ025>027-034>036-040-047-049-050-058-095>099-011600-
WEST-CENTRAL ILLINOIS

CITY           SKY/WX    TMP DP  RH WIND       PRES   REMARKS
$$

ILZ028>032-037-038-041>044-048-051>054-059>061-011600-
CENTRAL ILLINOIS

CITY           SKY/WX    TMP DP  RH WIND       PRES   REMARKS
PEORIA         SUNNY     64  53  67 SE6       29.95F
SPRINGFIELD    SUNNY     65  56  72 SE7       29.94F
TAYLORVILLE    NOT AVBL
$$

ILZ033-039-045-046-055>057-062-063-011600-
EAST-CENTRAL ILLINOIS

CITY           SKY/WX    TMP DP  RH WIND       PRES   REMARKS
MATTOON        SUNNY     64  57  78 SE9       29.98S
$$

ILZ079-100>102-011600-
SOUTHWEST ILLINOIS

CITY           SKY/WX    TMP DP  RH WIND       PRES   REMARKS
CAHOKIA*       SUNNY     73  62  68 SE8       29.92F
$$

ILZ064>066-069>071-074>076-080>082-084>086-088>090-092>094-011600-
SOUTH-CENTRAL ILLINOIS

CITY           SKY/WX    TMP DP  RH WIND       PRES   REMARKS
CARBONDALE     SUNNY     71  61  70 SE6       29.95S
$$

ILZ067-068-072-073-078-083-087-091-011600-
SOUTHEAST ILLINOIS

CITY           SKY/WX    TMP DP  RH WIND       PRES   REMARKS
LAWRENCEVILLE  SUNNY     68  59  73 SE3       29.99S
$$

ABBREVIATIONS USED IN REMARKS
   TC - TEMPERATURE IN CELSIUS
  WCI - WIND CHILL INDEX
   HX - HEAT INDEX
  VSB - VISIBILITY
$$



USA.gov is the U.S. government's official web portal to all federal, state and local government web resources and services.